Location: Aulus
(42.7909°N, 1.3399°E)
Time: 13:15:19
(UTC+00:00)

deb Kosmos- 1980 - Pass Details

Date: 18 October 2025
Orbit: 834 x 854 km, 71.0° (Epoch: 16 November)

Event Time Altitude Azimuth Distance (km) Brightness Sun altitude
Rises 19:25:35 0° 340° (NNW) 3,401 ? -26.1°
Reaches altitude 10° 19:28:08 10° 346° (NNW) 2,460 ? -26.5°
Enters shadow 19:32:01 37° 18° (NNE) 1,272 ? -27.2°
